Location: Caltech
(34.1382°N, 118.1253°W)
Time: 13:43:02
(UTC-07:00)

Iridium 62 - Visible Passes

Search period start: 24 April 2018 00:00
Search period end: 04 May 2018 00:00
Orbit: 776 x 779 km, 86.4° (Epoch: 24 April)

Date Brightness Start Highest point End Pass type
(mag) Time Alt. Az. Time Alt. Az. Time Alt. Az.
24 Apr 6.4 04:24:46 10° N 04:29:55 58° E 04:35:02 10° SSE visible
25 Apr 7.6 03:51:44 10° NNE 03:56:17 30° E 04:00:49 10° SE visible
25 Apr 6.9 05:32:38 10° NNW 05:36:48 25° W 05:40:57 10° SW visible
26 Apr 8.5 03:19:26 10° NE 03:22:32 16° ENE 03:25:37 10° ESE visible
26 Apr 6.1 04:58:29 10° NNW 05:03:29 47° W 05:08:26 10° SSW visible
27 Apr 5.8 04:24:48 10° N 04:30:02 87° E 04:35:15 10° S visible
28 Apr 6.8 03:51:29 10° NNE 03:56:29 44° E 04:01:12 11° SSE visible
28 Apr 7.4 05:33:31 10° NW 05:36:45 17° W 05:39:57 10° WSW visible
29 Apr 7.9 03:18:40 10° NNE 03:22:48 23° E 03:26:54 10° SE visible
29 Apr 6.6 04:58:55 10° NNW 05:03:29 32° W 05:07:30 13° SW visible
30 Apr 8.6 02:47:05 10° NE 02:49:00 12° ENE 02:50:54 10° E visible
30 Apr 5.8 04:24:57 10° N 04:30:07 62° W 04:33:27 22° SSW visible
01 May 6.1 03:51:25 10° N 03:56:38 68° E 03:59:28 27° SSE visible
01 May 7.7 05:35:27 10° WNW 05:36:38 11° WNW 05:37:50 10° W visible
02 May 7.2 03:18:18 10° NNE 03:23:02 34° E 03:25:33 22° SE visible
02 May 7.1 04:59:34 10° NW 05:03:28 22° W 05:05:59 15° WSW visible
03 May 8.1 02:45:47 10° NE 02:49:18 18° E 02:51:40 14° ESE visible
03 May 6.3 04:25:17 10° NNW 04:30:10 41° W 04:32:07 29° SW visible
